Regional Weather Roundup
Issued by NWS Glasgow, MT

Home | Current Version | Previous Version | Text Only | Print | Product List | Glossary On
Versions: 1 2 3 4 5 6 7 8 9 10 11 12 13 14 15 16 17 18 19 20 21 22 23 24 25 26 27 28 29 30 31 32 33 34 35 36 37 38 39 40 41 42 43 44 45 46 47 48 49 50
000
ASUS45 KGGW 010615
RWRGGW
HOURLY REGIONAL WEATHER ROUNDUP FOR NORTHEAST MONTANA
NATIONAL WEATHER SERVICE GLASGOW MONTANA
1200 AM MDT TUE SEP 01 2015

NOTE: "FAIR" INDICATES FEW OR NO CLOUDS BELOW 12,000 FEET WITH NO
SIGNIFICANT WEATHER AND/OR OBSTRUCTIONS TO VISISBILITY.

NORTHEAST MONTANA


CITY           SKY/WX    TMP DP  RH WIND       PRES   REMARKS
GLASGOW        PTCLDY    55  46  71 E6        29.84R
6HR MIN TEMP:  55; 6HR MAX TEMP:  75;

PLENTYWOOD       N/A     55  39  54 E3          N/A
WOLF POINT     CLEAR     50  43  77 VRB5      29.85S
JORDAN           N/A     54  36  50 CALM      29.88R
WINNETT          N/A     50  46  86 S2          N/A
SIDNEY         CLEAR     52  41  66 CALM      29.87S
GLENDIVE       CLEAR     54  37  54 CALM      29.91S
MALTA            N/A     57  47  69 E1          N/A
SCOBEY           N/A     56  38  50 CALM      29.84S
OPHEIM           N/A     55  37  50 S2        29.69

FORT PECK REPORTS


CITY           SKY/WX    TMP DP  RH WIND       PRES   REMARKS
FORT PECK        N/A     66  45  46 SE13        N/A
THE PINES        N/A     63  42  46 S6          N/A

SOUTHEAST MONTANA


CITY           SKY/WX    TMP DP  RH WIND       PRES   REMARKS
BILLINGS       PTCLDY    70  32  24 SE5       29.90S
MILES CITY     CLEAR     65  40  39 NE7       29.88S
BAKER          PTCLDY    64  51  62 S16       29.91F
LIVINGSTON     CLEAR     70  32  24 S10G22    29.93S

CENTRAL MONTANA


CITY           SKY/WX    TMP DP  RH WIND       PRES   REMARKS
HAVRE          MOCLDY    55  38  52 S12       29.81F
LEWISTOWN      PTCLDY    53  40  61 SE6       29.93S
GREAT FALLS    MOCLDY    59  37  44 S7        29.87F
CUT BANK       CLOUDY    54  38  54 SW12      29.84F
HELENA         CLEAR     63  39  41 SW6       29.92R
BUTTE          CLEAR     50  39  66 E6        30.02R
BOZEMAN        PTCLDY    52  40  63 CALM      29.94R

WESTERN MONTANA


CITY           SKY/WX    TMP DP  RH WIND       PRES   REMARKS
MISSOULA       CLEAR     51  42  71 MISG      29.94R
KALISPELL      NOT AVBL

NORTH DAKOTA


CITY           SKY/WX    TMP DP  RH WIND       PRES   REMARKS
WILLISTON      CLEAR     54  42  64 CALM      29.87S
DICKINSON      PTCLDY    55  42  61 S7        29.89S
MINOT          FAIR      61  45  55 SW10      29.85R
BISMARCK       CLEAR     57  51  80 SE5       29.90S

SOUTHERN SASKATCHEWAN


CITY           SKY/WX    TMP DP  RH WIND       PRES   REMARKS
REGINA         CLOUDY    54  48  82 SW6       29.76R
ESTEVAN        PTCLDY    54  43  66 S7        29.83R
SWIFT CURRENT  CLEAR     57  41  54 SW14      29.76S



USA.gov is the U.S. government's official web portal to all federal, state and local government web resources and services.